Troy, MI

12:18 AM EST on December 13, 2019 (GMT -0500)
Troy

Weather History for KVLL - November, 2019

Change the Weather History Date:

Sunday, November 17, 2019

  Actual Average (WUND) Record (WUND)
Temperature  
Mean Temperature 30 °F -  
Max Temperature 40 °F - - (-1)
Min Temperature 21 °F - - (-1)
Degree Days  
Heating Degree Days 34    
Moisture  
Dew Point 23 °F    
Average Humidity 75    
Maximum Humidity 91    
Minimum Humidity 48    
Precipitation  
Precipitation 0.00 in - - ()
Sea Level Pressure  
Sea Level Pressure 30.09 in    
Wind  
Wind Speed 3 mph ()    
Max Wind Speed 7 mph    
Max Gust Speed -    
Visibility 10.0 miles    
Events      
Averages and records for this station are not official NWS values.
T = Trace of Precipitation, MM = Missing Value Source: Averaged Metar Reports

Daily Weather History Graph

Daily Weather History Graph

Search for Another Location

Airport or City:

Astronomy

Nov. 17, 2019 Rise Set
Actual Time 7:26 AM EST 5:08 PM EST
Civil Twilight 6:55 AM EST 5:39 PM EST
Nautical Twilight 6:21 AM EST 6:13 PM EST
Astronomical Twilight 5:48 AM EST 6:46 PM EST
Moon 9:42 PM EST (11/17) 12:12 PM EST (11/17)
Length of Visible Light 10h 43m
Length of Day
9h 42m
Waning Gibbous, 73% of the Moon is Illuminated
Nov 17
Waning Gibbous
Nov 19
Last Quarter
Nov 26
New
Dec 4
First Quarter
Dec 12
Full

Hourly Weather History & Observations

Time (EST) Temp. Windchill Dew Point Humidity Pressure Visibility Wind Dir Wind Speed Gust Speed Precip Events Conditions
12:15 AM 24.4 °F 16.5 °F 19.4 °F 81% 30.29 in 10.0 mi NE 6.9 mph - N/A   Clear
12:35 AM 24.3 °F 17.3 °F 19.4 °F 82% 30.27 in 10.0 mi NE 5.8 mph - N/A   Clear
12:55 AM 24.3 °F 16.3 °F 19.4 °F 82% 30.27 in 10.0 mi NE 6.9 mph - N/A   Clear
1:15 AM 23.9 °F 16.8 °F 19.6 °F 84% 30.27 in 10.0 mi NE 5.8 mph - N/A   Clear
1:35 AM 23.9 °F 18.0 °F 19.8 °F 84% 30.27 in 10.0 mi NNE 4.6 mph - N/A   Clear
1:55 AM 23.0 °F 18.4 °F 19.4 °F 86% 30.26 in 10.0 mi North 3.5 mph - N/A   Clear
1:56 AM 23.0 °F - 19.4 °F 86% 30.26 in 10.0 mi Calm Calm - N/A   Clear
2:15 AM 23.0 °F 17.0 °F 19.4 °F 86% 30.25 in 10.0 mi NNE 4.6 mph - N/A   Clear
2:35 AM 23.4 °F 18.9 °F 19.8 °F 86% 30.25 in 10.0 mi North 3.5 mph - N/A   Clear
2:55 AM 22.8 °F 18.2 °F 19.4 °F 87% 30.25 in 10.0 mi North 3.5 mph - N/A   Clear
3:15 AM 23.4 °F 17.4 °F 20.1 °F 87% 30.24 in 10.0 mi NE 4.6 mph - N/A   Clear
3:16 AM 23.4 °F 17.4 °F 20.1 °F 87% 30.24 in 10.0 mi NE 4.6 mph - N/A   Clear
3:35 AM 23.4 °F 18.9 °F 20.1 °F 87% 30.24 in 10.0 mi NNE 3.5 mph - N/A   Clear
3:36 AM 23.4 °F 17.4 °F 20.1 °F 87% 30.24 in 10.0 mi NNE 4.6 mph - N/A   Clear
3:55 AM 23.0 °F - 19.8 °F 87% 30.23 in 10.0 mi Calm Calm - N/A   Clear
3:56 AM 22.8 °F - 19.8 °F 88% 30.23 in 10.0 mi Calm Calm - N/A   Clear
4:15 AM 22.8 °F 18.2 °F 19.8 °F 88% 30.23 in 10.0 mi North 3.5 mph - N/A   Clear
4:35 AM 22.8 °F 16.7 °F 20.1 °F 89% 30.22 in 10.0 mi NNE 4.6 mph - N/A   Clear
4:55 AM 22.6 °F 18.0 °F 19.9 °F 89% 30.23 in 10.0 mi NNE 3.5 mph - N/A   Clear
4:56 AM 22.8 °F 18.2 °F 19.9 °F 89% 30.23 in 10.0 mi NNE 3.5 mph - N/A   Clear
5:15 AM 22.8 °F - 19.9 °F 89% 30.22 in 10.0 mi Calm Calm - N/A   Clear
5:35 AM 22.6 °F 18.0 °F 19.8 °F 89% 30.22 in 10.0 mi NNE 3.5 mph - N/A   Clear
5:55 AM 22.8 °F 16.7 °F 20.1 °F 89% 30.21 in 10.0 mi NE 4.6 mph - N/A   Clear
5:56 AM 22.8 °F 16.7 °F 20.1 °F 89% 30.21 in 10.0 mi NE 4.6 mph - N/A   Clear
6:15 AM 22.6 °F 18.0 °F 19.8 °F 89% 30.21 in 10.0 mi NE 3.5 mph - N/A   Clear
6:35 AM 22.6 °F - 19.9 °F 89% 30.20 in 10.0 mi Calm Calm - N/A   Clear
6:36 AM 22.6 °F - 19.9 °F 89% 30.20 in 10.0 mi Calm Calm - N/A   Clear
6:55 AM 22.1 °F - 19.6 °F 90% 30.19 in 10.0 mi Calm Calm - N/A   Clear
6:56 AM 22.1 °F - 19.6 °F 90% 30.19 in 10.0 mi Calm Calm - N/A   Clear
7:15 AM 21.6 °F 16.8 °F 19.2 °F 91% 30.19 in 10.0 mi NNE 3.5 mph - N/A   Clear
7:16 AM 21.6 °F 16.8 °F 19.2 °F 91% 30.19 in 10.0 mi NNE 3.5 mph - N/A   Clear
7:35 AM 22.1 °F 17.4 °F 19.4 °F 89% 30.18 in 10.0 mi NNE 3.5 mph - N/A   Clear
7:55 AM 22.5 °F - 19.8 °F 89% 30.18 in 10.0 mi Calm Calm - N/A   Clear
8:15 AM 23.9 °F - 20.7 °F 87% 30.18 in 10.0 mi Calm Calm - N/A   Clear
8:16 AM 23.9 °F - 20.7 °F 87% 30.18 in 10.0 mi Calm Calm - N/A   Clear
8:35 AM 25.2 °F - 21.4 °F 86% 30.17 in 10.0 mi Calm Calm - N/A   Clear
8:36 AM 25.3 °F 21.1 °F 21.4 °F 85% 30.17 in 10.0 mi ENE 3.5 mph - N/A   Clear
8:55 AM 25.2 °F 19.5 °F 21.2 °F 85% 30.17 in 10.0 mi ENE 4.6 mph - N/A   Clear
8:56 AM 25.2 °F 19.5 °F 21.2 °F 85% 30.16 in 10.0 mi ENE 4.6 mph - N/A   Clear
9:15 AM 25.9 °F 21.7 °F 21.9 °F 85% 30.16 in 10.0 mi NE 3.5 mph - N/A   Clear
9:16 AM 26.1 °F - 22.1 °F 85% 30.16 in 10.0 mi Calm Calm - N/A   Clear
9:35 AM 27.3 °F - 22.8 °F 83% 30.14 in 10.0 mi Calm Calm - N/A   Clear
9:36 AM 27.3 °F - 22.8 °F 83% 30.14 in 10.0 mi Calm Calm - N/A   Clear
9:56 AM 28.2 °F - 23.5 °F 83% 30.14 in 10.0 mi Calm Calm - N/A   Clear
10:15 AM 30.2 °F 26.7 °F 24.6 °F 80% 30.13 in 10.0 mi ENE 3.5 mph - N/A   Clear
10:35 AM 31.5 °F - 25.5 °F 79% 30.13 in 10.0 mi Calm Calm - N/A   Clear
10:36 AM 31.5 °F - 25.5 °F 79% 30.13 in 10.0 mi Calm Calm - N/A   Clear
10:55 AM 32.2 °F - 25.7 °F 77% 30.12 in 10.0 mi Calm Calm - N/A   Clear
11:15 AM 33.6 °F 30.6 °F 25.9 °F 73% 30.10 in 10.0 mi East 3.5 mph - N/A   Clear
11:16 AM 33.8 °F - 25.9 °F 73% 30.10 in 10.0 mi Calm Calm - N/A   Clear
11:36 AM 35.6 °F - 26.4 °F 69% 30.09 in 10.0 mi Calm Calm - N/A   Clear
11:55 AM 36.1 °F 32.3 °F 26.4 °F 68% 30.08 in 10.0 mi ENE 4.6 mph - N/A   Clear
12:15 PM 36.9 °F 34.3 °F 26.4 °F 66% 30.07 in 10.0 mi ENE 3.5 mph - N/A   Clear
12:35 PM 38.3 °F 34.8 °F 26.2 °F 62% 30.06 in 10.0 mi ENE 4.6 mph - N/A   Clear
12:55 PM 39.2 °F 35.9 °F 25.2 °F 57% 30.05 in 10.0 mi East 4.6 mph - N/A   Clear
1:15 PM 39.6 °F 36.3 °F 23.0 °F 52% 30.04 in 10.0 mi East 4.6 mph - N/A   Clear
1:16 PM 39.6 °F 35.4 °F 23.0 °F 52% 30.04 in 10.0 mi East 5.8 mph - N/A   Clear
1:35 PM 39.6 °F - 22.1 °F 50% 30.04 in 10.0 mi Calm Calm - N/A   Clear
1:55 PM 40.3 °F 38.2 °F 22.1 °F 48% 30.03 in 10.0 mi ESE 3.5 mph - N/A   Clear
2:15 PM 39.7 °F 36.5 °F 21.9 °F 49% 30.02 in 10.0 mi East 4.6 mph - N/A   Clear
2:35 PM 39.7 °F 36.5 °F 22.5 °F 50% 30.01 in 10.0 mi East 4.6 mph - N/A   Clear
2:55 PM 39.6 °F 37.4 °F 21.2 °F 48% 30.02 in 10.0 mi SE 3.5 mph - N/A   Clear
2:56 PM 39.6 °F 37.4 °F 21.2 °F 48% 30.02 in 10.0 mi ESE 3.5 mph - N/A   Clear
3:15 PM 39.6 °F - 21.6 °F 49% 30.01 in 10.0 mi Calm Calm - N/A   Clear
3:35 PM 39.2 °F 35.9 °F 21.4 °F 49% 30.00 in 10.0 mi ESE 4.6 mph - N/A   Clear
3:36 PM 39.2 °F 35.0 °F 21.7 °F 50% 30.00 in 10.0 mi ESE 5.8 mph - N/A   Clear
4:15 PM 37.8 °F 35.3 °F 25.0 °F 60% 30.00 in 10.0 mi East 3.5 mph - N/A   Clear
4:35 PM 37.2 °F 32.6 °F 25.7 °F 63% 30.00 in 10.0 mi East 5.8 mph - N/A   Clear
4:55 PM 36.5 °F 33.9 °F 26.1 °F 66% 30.00 in 10.0 mi ESE 3.5 mph - N/A   Scattered Clouds
4:56 PM 36.5 °F 33.9 °F 26.1 °F 66% 30.00 in 10.0 mi ESE 3.5 mph - N/A   Scattered Clouds
5:15 PM 36.3 °F 33.7 °F 26.4 °F 67% 30.00 in 10.0 mi ESE 3.5 mph - N/A   Mostly Cloudy
5:35 PM 36.0 °F 32.1 °F 26.2 °F 68% 29.99 in 10.0 mi East 4.6 mph - N/A   Scattered Clouds
5:55 PM 35.8 °F 33.0 °F 25.7 °F 67% 29.99 in 10.0 mi East 3.5 mph - N/A   Mostly Cloudy
6:15 PM 35.8 °F 33.0 °F 25.7 °F 67% 29.98 in 10.0 mi East 3.5 mph - N/A   Overcast
6:35 PM 35.8 °F - 26.4 °F 69% 29.98 in 10.0 mi Calm Calm - N/A   Overcast
6:36 PM 35.8 °F - 26.4 °F 69% 29.98 in 10.0 mi Calm Calm - N/A   Overcast
6:55 PM 35.6 °F - 26.1 °F 68% 29.98 in 10.0 mi Calm Calm - N/A   Overcast
7:15 PM 35.6 °F - 26.2 °F 69% 29.98 in 10.0 mi Calm Calm - N/A   Overcast
7:35 PM 35.6 °F - 26.6 °F 70% 29.97 in 10.0 mi Calm Calm - N/A   Overcast
7:55 PM 35.6 °F - 26.8 °F 70% 29.96 in 10.0 mi Calm Calm - N/A   Overcast
8:15 PM 35.6 °F - 27.1 °F 71% 29.95 in 10.0 mi Calm Calm - N/A   Overcast
8:35 PM 35.4 °F - 27.0 °F 71% 29.95 in 10.0 mi Calm Calm - N/A   Overcast
8:36 PM 35.6 °F - 27.0 °F 71% 29.95 in 10.0 mi Calm Calm - N/A   Overcast
8:55 PM 35.6 °F - 26.6 °F 70% 29.95 in 10.0 mi Calm Calm - N/A   Overcast
8:56 PM 35.6 °F - 26.6 °F 70% 29.95 in 10.0 mi Calm Calm - N/A   Overcast
9:15 PM 35.6 °F - 27.0 °F 71% 29.94 in 10.0 mi Calm Calm - N/A   Overcast
9:35 PM 35.4 °F - 27.3 °F 72% 29.93 in 10.0 mi Calm Calm - N/A   Overcast
9:36 PM 35.6 °F - 27.3 °F 72% 29.93 in 10.0 mi Calm Calm - N/A   Overcast
9:55 PM 35.2 °F - 27.3 °F 73% 29.92 in 10.0 mi Calm Calm - N/A   Overcast
9:56 PM 35.2 °F - 27.3 °F 73% 29.92 in 10.0 mi Calm Calm - N/A   Overcast
10:15 PM 35.6 °F - 27.5 °F 72% 29.92 in 10.0 mi Calm Calm - N/A   Overcast
10:16 PM 35.6 °F - 27.5 °F 72% 29.92 in 10.0 mi Calm Calm - N/A   Overcast
10:35 PM 35.6 °F - 27.5 °F 72% 29.91 in 10.0 mi Calm Calm - N/A   Overcast
10:55 PM 35.6 °F - 28.0 °F 74% 29.90 in 10.0 mi Calm Calm - N/A   Overcast
10:56 PM 35.6 °F - 28.2 °F 75% 29.90 in 10.0 mi Calm Calm - N/A   Overcast
11:15 PM 35.6 °F - 28.0 °F 74% 29.90 in 10.0 mi Calm Calm - N/A   Overcast
11:35 PM 35.8 °F - 28.6 °F 75% 29.90 in 10.0 mi Calm Calm - N/A   Overcast
11:55 PM 36.7 °F - 29.1 °F 74% 29.89 in 10.0 mi Calm Calm - N/A   Overcast
11:56 PM 36.7 °F - 28.9 °F 74% 29.89 in 10.0 mi Calm Calm - N/A   Overcast